• In Uzbekistan
  • List of Countries
  • For 7 days
  • Water Temperature
  • Satellite Maps
  • Weather Map
  • Weather Widgets
  • user-avatar
    Login

    Hourly Weather Mendoza

    Today, 23 August, Wednesday

    Time Temperature Precipitation Wind Pressure Humidity
    00:00 +15°C° 0 mm 6 mps 693 mmHg 25%
    01:00 +14°C° 0 mm 6 mps 693 mmHg 25%
    02:00 +12°C° 0 mm 7 mps 694 mmHg 31%
    03:00 +10°C° 0 mm 8 mps 695 mmHg 37%
    04:00 +8°C° 0 mm 9 mps 695 mmHg 43%
    05:00 +7°C° 0 mm 8 mps 696 mmHg 44%
    06:00 +8°C° 0 mm 7 mps 697 mmHg 44%
    07:00 +7°C° 0 mm 6 mps 698 mmHg 44%
    08:00 +9°C° 0 mm 6 mps 697 mmHg 40%
    09:00 +10°C° 0 mm 5 mps 697 mmHg 36%
    10:00 +12°C° 0 mm 5 mps 697 mmHg 31%
    11:00 +13°C° 0 mm 5 mps 697 mmHg 28%
    12:00 +14°C° 0 mm 5 mps 696 mmHg 26%
    13:00 +16°C° 0 mm 5 mps 695 mmHg 23%
    14:00 +17°C° 0 mm 4 mps 695 mmHg 22%
    15:00 +17°C° 0 mm 4 mps 695 mmHg 22%
    16:00 +17°C° 0 mm 4 mps 695 mmHg 21%
    17:00 +16°C° 0 mm 3 mps 695 mmHg 23%
    18:00 +14°C° 0 mm 3 mps 695 mmHg 24%
    19:00 +13°C° 0 mm 3 mps 695 mmHg 26%
    20:00 +12°C° 0 mm 3 mps 695 mmHg 25%
    21:00 +12°C° 0 mm 3 mps 695 mmHg 25%
    22:00 +11°C° 0 mm 3 mps 695 mmHg 25%
    23:00 +11°C° 0 mm 3 mps 694 mmHg 25%

    Tomorrow, 24 August, Thursday

    Time Temperature Precipitation Wind Pressure Humidity
    00:00 +10°C° 0 mm 3 mps 694 mmHg 25%
    01:00 +10°C° 0 mm 4 mps 694 mmHg 25%
    02:00 +10°C° 0 mm 4 mps 693 mmHg 25%
    03:00 +10°C° 0 mm 4 mps 693 mmHg 24%
    04:00 +10°C° 0 mm 4 mps 693 mmHg 24%
    05:00 +10°C° 0 mm 4 mps 693 mmHg 23%
    06:00 +9°C° 0 mm 5 mps 693 mmHg 22%
    07:00 +10°C° 0 mm 5 mps 693 mmHg 21%
    08:00 +14°C° 0 mm 5 mps 693 mmHg 18%
    09:00 +16°C° 0 mm 5 mps 693 mmHg 15%
    10:00 +20°C° 0 mm 6 mps 693 mmHg 12%
    11:00 +21°C° 0 mm 6 mps 693 mmHg 10%
    12:00 +23°C° 0 mm 6 mps 692 mmHg 9%
    13:00 +24°C° 0 mm 6 mps 692 mmHg 8%
    14:00 +24°C° 0 mm 6 mps 692 mmHg 7%
    15:00 +25°C° 0 mm 5 mps 692 mmHg 7%
    16:00 +25°C° 0 mm 5 mps 692 mmHg 7%
    17:00 +22°C° 0 mm 5 mps 692 mmHg 8%
    18:00 +20°C° 0 mm 5 mps 692 mmHg 9%
    19:00 +16°C° 0 mm 6 mps 693 mmHg 11%
    20:00 +16°C° 0 mm 5 mps 693 mmHg 11%
    21:00 +15°C° 0 mm 5 mps 693 mmHg 12%
    22:00 +14°C° 0 mm 5 mps 694 mmHg 13%
    23:00 +13°C° 0 mm 5 mps 694 mmHg 13%

    Day after tomorrow, 25 August, Friday

    Time Temperature Precipitation Wind Pressure Humidity
    00:00 +13°C° 0 mm 5 mps 694 mmHg 14%
    01:00 +12°C° 0 mm 5 mps 694 mmHg 15%
    02:00 +12°C° 0 mm 5 mps 694 mmHg 17%
    03:00 +10°C° 0 mm 5 mps 694 mmHg 19%
    04:00 +10°C° 0 mm 5 mps 694 mmHg 21%
    05:00 +10°C° 0 mm 5 mps 695 mmHg 23%
    06:00 +10°C° 0 mm 5 mps 695 mmHg 25%
    07:00 +11°C° 0 mm 4 mps 696 mmHg 27%
    08:00 +12°C° 0 mm 5 mps 697 mmHg 30%
    09:00 +13°C° 0 mm 5 mps 697 mmHg 33%
    10:00 +15°C° 0 mm 5 mps 698 mmHg 36%
    11:00 +15°C° 0 mm 5 mps 698 mmHg 35%
    12:00 +16°C° 0 mm 5 mps 698 mmHg 34%
    13:00 +17°C° 0 mm 5 mps 698 mmHg 33%
    14:00 +16°C° 0 mm 5 mps 698 mmHg 34%
    15:00 +16°C° 0 mm 5 mps 698 mmHg 35%
    16:00 +16°C° 0 mm 5 mps 698 mmHg 36%
    17:00 +14°C° 0 mm 5 mps 699 mmHg 39%
    18:00 +13°C° 0 mm 4 mps 700 mmHg 41%
    19:00 +12°C° 0 mm 3 mps 701 mmHg 44%
    20:00 +11°C° 0 mm 3 mps 701 mmHg 44%
    21:00 +12°C° 0 mm 2 mps 701 mmHg 43%
    22:00 +10°C° 0 mm 2 mps 701 mmHg 43%
    23:00 +10°C° 0 mm 2 mps 701 mmHg 43%

    26 August, Saturday

    Time Temperature Precipitation Wind Pressure Humidity
    00:00 +9°C° 0 mm 2 mps 700 mmHg 43%
    01:00 +9°C° 0 mm 2 mps 700 mmHg 43%
    02:00 +9°C° 0 mm 2 mps 700 mmHg 44%
    03:00 +8°C° 0 mm 2 mps 700 mmHg 45%
    04:00 +8°C° 0 mm 2 mps 699 mmHg 46%
    05:00 +8°C° 0 mm 2 mps 700 mmHg 45%
    06:00 +9°C° 0 mm 2 mps 700 mmHg 44%
    07:00 +9°C° 0 mm 2 mps 700 mmHg 42%
    08:00 +10°C° 0 mm 2 mps 700 mmHg 41%
    09:00 +13°C° 0 mm 2 mps 700 mmHg 39%
    10:00 +14°C° 0 mm 2 mps 699 mmHg 37%
    11:00 +14°C° 0 mm 3 mps 699 mmHg 36%
    12:00 +16°C° 0 mm 3 mps 698 mmHg 35%
    13:00 +17°C° 0 mm 3 mps 698 mmHg 34%
    14:00 +18°C° 0 mm 3 mps 697 mmHg 33%
    15:00 +18°C° 0 mm 3 mps 697 mmHg 32%
    16:00 +18°C° 0 mm 3 mps 697 mmHg 31%
    17:00 +17°C° 0 mm 3 mps 697 mmHg 33%
    18:00 +16°C° 0 mm 2 mps 698 mmHg 35%
    19:00 +15°C° 0 mm 2 mps 698 mmHg 36%
    20:00 +14°C° 0 mm 2 mps 698 mmHg 37%
    21:00 +14°C° 0 mm 2 mps 697 mmHg 37%
    22:00 +13°C° 0 mm 1 mps 697 mmHg 37%
    23:00 +13°C° 0 mm 2 mps 697 mmHg 37%

    27 August, Sunday

    Time Temperature Precipitation Wind Pressure Humidity
    00:00 +13°C° 0 mm 2 mps 697 mmHg 38%
    01:00 +13°C° 0 mm 2 mps 696 mmHg 38%
    02:00 +12°C° 0 mm 2 mps 696 mmHg 38%
    03:00 +11°C° 0 mm 3 mps 696 mmHg 39%
    04:00 +11°C° 0 mm 3 mps 695 mmHg 39%
    05:00 +11°C° 0 mm 3 mps 696 mmHg 39%
    06:00 +12°C° 0 mm 3 mps 696 mmHg 39%
    07:00 +12°C° 0 mm 3 mps 696 mmHg 39%
    08:00 +14°C° 0 mm 3 mps 696 mmHg 35%
    09:00 +17°C° 0 mm 3 mps 696 mmHg 31%
    10:00 +19°C° 0 mm 3 mps 696 mmHg 28%
    11:00 +20°C° 0 mm 3 mps 696 mmHg 25%
    12:00 +21°C° 0 mm 3 mps 695 mmHg 22%
    13:00 +22°C° 0 mm 3 mps 695 mmHg 18%
    14:00 +24°C° 0 mm 3 mps 695 mmHg 18%
    15:00 +24°C° 0 mm 3 mps 695 mmHg 18%
    16:00 +24°C° 0 mm 3 mps 695 mmHg 17%
    17:00 +21°C° 0 mm 3 mps 695 mmHg 20%
    18:00 +19°C° 0 mm 3 mps 695 mmHg 22%
    19:00 +18°C° 0 mm 3 mps 695 mmHg 25%
    20:00 +17°C° 0 mm 3 mps 695 mmHg 24%
    21:00 +17°C° 0 mm 3 mps 695 mmHg 23%
    22:00 +17°C° 0 mm 4 mps 695 mmHg 23%
    23:00 +16°C° 0 mm 3 mps 695 mmHg 24%

    28 August, Monday

    Time Temperature Precipitation Wind Pressure Humidity
    00:00 +16°C° 0 mm 3 mps 695 mmHg 25%
    01:00 +14°C° 0 mm 3 mps 694 mmHg 26%
    02:00 +14°C° 0 mm 3 mps 694 mmHg 27%
    03:00 +13°C° 0 mm 4 mps 694 mmHg 29%
    04:00 +13°C° 0 mm 4 mps 694 mmHg 31%
    05:00 +13°C° 0 mm 4 mps 695 mmHg 35%
    06:00 +13°C° 0 mm 5 mps 695 mmHg 39%
    07:00 +13°C° 0 mm 5 mps 695 mmHg 43%
    08:00 +14°C° 0 mm 6 mps 695 mmHg 44%
    09:00 +15°C° 0 mm 6 mps 695 mmHg 45%
    10:00 +17°C° 0 mm 6 mps 695 mmHg 46%
    11:00 +17°C° 0 mm 6 mps 695 mmHg 45%
    12:00 +19°C° 0 mm 6 mps 695 mmHg 43%
    13:00 +19°C° 0 mm 6 mps 695 mmHg 42%
    14:00 +19°C° 0 mm 6 mps 695 mmHg 44%
    15:00 +17°C° 0 mm 6 mps 695 mmHg 46%
    16:00 +17°C° 0 mm 6 mps 695 mmHg 48%
    17:00 +16°C° 0 mm 5 mps 696 mmHg 53%
    18:00 +14°C° 0 mm 5 mps 696 mmHg 58%
    19:00 +13°C° 0 mm 5 mps 697 mmHg 64%
    20:00 +12°C° 0 mm 4 mps 697 mmHg 65%
    21:00 +12°C° 0 mm 4 mps 697 mmHg 67%
    22:00 +12°C° 0 mm 4 mps 697 mmHg 68%
    23:00 +11°C° 0 mm 4 mps 697 mmHg 68%
    Show more